Find Merah Putih

NORAD ID: 43587 Int'l Des: 2018-064 Owner: TELK Country: ID operational
HEOCIRCULARGSOGEO

リアルタイム位置

3D地球を読み込み中...

Merah Putihについて

説明を読み込み中...

次回通過

Passes for default location (London). Set your location on the main map for personalized predictions.

高度履歴

Loading altitude history...

軌道要素

1 43587U 18064A 26106.71642130 -.00000337 00000-0 00000+0 0 9998
2 43587 0.0184 177.3188 0002181 244.2722 149.1684 1.00268669 28261
Epoch: Apr 16, 2026 • Age: 8 hours

現在のステータス

高度 35786.3 km
速度 3.07 km/s
衛星直下点 0.02°N, 107.95°E
打ち上げ日 Aug 7, 2018
運用期間 7.6 years
タイプ other

技術仕様

分類 Payload
質量 5800.00 kg
乾燥質量 3000.00 kg
総質量 5800.00 kg
長さ 5.00 m
直径 3.00 m
スパン 27.00 m
形状 Box + 2 pan
製造者 SSLMAX
バスタイプ LS-1300
フェーズステータス In Orbit
所有者/国 TELK/ID

Most Searched